Weather reports worldwide

Advertisment
Leuchars, United Kingdom (3171): temperature & dewpoint: 12.07.2019 06:00:00 - 18.07.2019 06:00:00 (BST)Leuchars, United Kingdom (3171): temperature -20cm & temperature -100cm: 12.07.2019 06:00:00 - 18.07.2019 06:00:00 (BST)Leuchars, United Kingdom (3171): wind speed: 12.07.2019 06:00:00 - 18.07.2019 06:00:00 (BST)Leuchars, United Kingdom (3171): wind direction: 12.07.2019 06:00:00 - 18.07.2019 06:00:00 (BST)Leuchars, United Kingdom (3171): reduced air pressure: 12.07.2019 06:00:00 - 18.07.2019 06:00:00 (BST)Leuchars, United Kingdom (3171): visibility: 12.07.2019 06:00:00 - 18.07.2019 06:00:00 (BST)Leuchars, United Kingdom (3171): sunshine duration: 12.07.2019 06:00:00 - 18.07.2019 06:00:00 (BST)Leuchars, United Kingdom (3171): precipitation: 12.07.2019 06:00:00 - 18.07.2019 06:00:00 (BST)
Date & Time tt [°C] td [°C] tt -20cm [°C] tt -100cm [°C] ff [km/h] ff [kn] dd ppp [hPa] vv [km] sd [min] rr [mm]
18.07.2019 06:00:00 10,9 10,3 - - 21 11 W 1003,0 20 0 0,0
18.07.2019 05:00:00 10,8 10,0 - - 16 9 W 1002,8 23 0 0,0
18.07.2019 04:00:00 12,5 11,6 - - 18 10 W 1002,8 26 0 0,0
18.07.2019 03:00:00 14,7 13,5 - - 22 12 W 1002,6 10 0 0,0
18.07.2019 02:00:00 15,2 15,0 - - 4 2 S 1002,7 30 0 1,8
18.07.2019 01:00:00 15,2 14,9 - - 5 3 SE 1003,0 10 - 0,2
18.07.2019 00:00:00 14,8 14,5 - - 5 3 SSW 1003,5 8 0 1,6
17.07.2019 23:00:00 15,7 13,8 - - 5 3 S 1004,0 10 0 0,0
17.07.2019 22:00:00 15,7 13,9 - - 9 5 SW 1004,7 10 0 0,0
17.07.2019 21:00:00 15,7 13,9 - - 11 6 SW 1004,9 50 0 0,0
17.07.2019 20:00:00 16,2 13,7 - - 15 8 SW 1005,2 45 0 0,0
17.07.2019 19:00:00 16,2 14,0 - - 13 7 SSW 1005,9 26 0 0,0
17.07.2019 18:00:00 16,6 13,1 - - 21 11 SW 1006,4 35 0 0,0
17.07.2019 17:00:00 17,5 13,6 - - 29 16 SW 1006,7 10 0 0,2
17.07.2019 16:00:00 17,4 14,0 - - 18 10 SSW 1007,3 17 0 0,0
17.07.2019 15:00:00 18,3 14,2 - - 18 10 SSW 1007,8 29 0 0,0
17.07.2019 14:00:00 18,0 14,3 - - 16 9 WSW 1008,3 22 0 0,0
17.07.2019 13:00:00 19,3 14,3 - - 28 15 SW 1008,7 20 0 0,0
17.07.2019 12:00:00 19,3 15,0 - - 22 12 SSW 1009,1 22 0 0,0
17.07.2019 11:00:00 18,9 15,6 - - 16 9 SW 1009,4 30 0 0,0
17.07.2019 10:00:00 18,3 15,3 16,7 14,5 18 10 SW 1010,1 10 0 0,0
17.07.2019 09:00:00 17,1 14,4 - - 2 1 W 1010,5 21 0 0,0
17.07.2019 08:00:00 16,3 14,5 - - 4 2 W 1011,0 23 0 0,0
17.07.2019 07:00:00 15,5 13,9 - - 4 2 W 1011,2 10 0 0,0
17.07.2019 06:00:00 14,8 13,5 - - 2 1 SSW 1011,5 10 0 0,0
17.07.2019 05:00:00 14,3 13,1 - - 4 2 S 1012,1 17 0 0,0
17.07.2019 04:00:00 15,0 13,0 - - 4 2 SW 1012,6 10 0 0,0
17.07.2019 03:00:00 14,2 12,4 - - 8 4 W 1013,3 35 0 0,0
17.07.2019 02:00:00 14,1 11,7 - - 9 5 W 1013,7 10 0 0,0
17.07.2019 01:00:00 15,3 13,0 - - 9 5 W 1014,1 10 - 0,0
17.07.2019 00:00:00 14,8 11,9 - - 13 7 WSW 1014,3 40 0 0,0
16.07.2019 23:00:00 16,3 12,6 - - 11 6 W 1014,5 50 0 0,0
16.07.2019 22:00:00 18,0 13,6 - - 9 5 W 1014,5 40 0 0,0
16.07.2019 21:00:00 19,7 13,9 - - 13 7 W 1014,3 45 24 0,0
16.07.2019 20:00:00 20,6 14,3 - - 15 8 W 1014,5 45 6 0,0
16.07.2019 19:00:00 22,2 13,3 - - 16 9 W 1014,3 45 36 0,0
16.07.2019 18:00:00 23,3 13,7 - - 21 11 W 1014,5 35 24 0,0
16.07.2019 17:00:00 23,9 13,7 - - 16 9 W 1014,6 10 30 0,0
16.07.2019 16:00:00 21,6 15,1 - - 15 8 W 1015,1 10 30 0,0
16.07.2019 15:00:00 22,2 16,0 - - 13 7 WSW 1015,3 10 42 0,0
16.07.2019 14:00:00 19,8 14,7 - - 21 11 W 1015,9 40 0 0,0
16.07.2019 13:00:00 20,9 14,5 - - 22 12 W 1016,1 23 6 0,0
16.07.2019 12:00:00 22,2 15,2 - - 18 10 WSW 1016,1 10 30 0,0
16.07.2019 11:00:00 20,8 12,6 - - 16 9 W 1016,2 30 48 0,0
16.07.2019 10:00:00 19,1 13,7 16,5 14,4 13 7 W 1016,6 40 60 -
16.07.2019 09:00:00 17,3 14,5 - - 11 6 WSW 1016,8 27 60 0,0
16.07.2019 08:00:00 14,5 13,4 - - 11 6 W 1017,1 10 0 0,0
16.07.2019 07:00:00 13,5 13,3 - - 11 6 W 1017,2 19 0 0,0
16.07.2019 06:00:00 12,0 12,0 - - 5 3 W 1017,3 10 0 0,0
16.07.2019 05:00:00 9,9 9,9 - - 4 2 NW 1017,6 12 0 0,0
16.07.2019 04:00:00 11,2 11,2 - - 8 4 W 1017,6 9 0 0,0
16.07.2019 03:00:00 11,1 11,1 - - 5 3 WNW 1018,0 20 0 0,0
16.07.2019 02:00:00 12,3 12,3 - - 0 0 N 1018,4 8 0 0,0
16.07.2019 01:00:00 13,0 13,0 - - 4 2 NNW 1018,7 9 - 0,0
16.07.2019 00:00:00 13,0 13,0 - - 8 4 N 1018,8 10 0 0,0
15.07.2019 23:00:00 13,3 12,6 - - 8 4 NNE 1019,1 10 0 0,0
15.07.2019 22:00:00 16,6 13,4 - - 11 6 E 1019,2 30 0 0,0
15.07.2019 21:00:00 18,1 12,7 - - 9 5 SE 1019,3 45 48 0,0
15.07.2019 20:00:00 19,0 13,5 - - 13 7 SE 1019,2 35 60 0,0
15.07.2019 19:00:00 19,8 14,2 - - 15 8 SSE 1019,4 35 60 0,0
15.07.2019 18:00:00 20,2 14,4 - - 15 8 SE 1019,6 30 60 0,0
15.07.2019 17:00:00 19,0 14,5 - - 22 12 ESE 1020,1 29 60 0,0
15.07.2019 16:00:00 18,3 14,0 - - 24 13 ESE 1020,7 11 60 0,0
15.07.2019 15:00:00 17,4 13,5 - - 24 13 E 1021,0 12 60 0,0
15.07.2019 14:00:00 16,8 12,8 - - 22 12 ESE 1021,5 2,4 60 0,0
15.07.2019 13:00:00 16,8 12,7 - - 21 11 ESE 1021,8 10 60 0,0
15.07.2019 12:00:00 17,2 12,9 - - 16 9 SE 1022,1 40 48 0,0
15.07.2019 11:00:00 18,1 13,4 - - 4 2 SE 1022,4 35 24 0,0
15.07.2019 10:00:00 15,6 12,0 16,4 14,2 9 5 SSW 1022,7 10 0 0,0
15.07.2019 09:00:00 15,0 11,8 - - 5 3 S 1023,0 40 42 0,0
15.07.2019 08:00:00 14,2 12,4 - - 2 1 NNE 1023,1 40 30 0,0
15.07.2019 07:00:00 12,6 12,6 - - 4 2 WSW 1023,1 10 6 0,0
15.07.2019 06:00:00 11,5 11,5 - - 5 3 WNW 1023,5 23 6 0,0
15.07.2019 05:00:00 10,3 10,3 - - 5 3 N 1023,7 11 0 0,0
15.07.2019 04:00:00 10,7 10,7 - - 8 4 N 1023,8 10 0 0,0
15.07.2019 03:00:00 10,2 9,5 - - 5 3 N 1024,2 18 0 0,0
15.07.2019 02:00:00 11,9 10,2 - - 4 2 NE 1024,3 10 0 0,0
15.07.2019 01:00:00 13,5 11,7 - - 9 5 E 1024,5 10 - 0,0
15.07.2019 00:00:00 13,9 11,8 - - 11 6 ESE 1024,7 45 0 0,0
14.07.2019 23:00:00 14,0 12,0 - - 13 7 ESE 1024,6 50 0 0,0
14.07.2019 22:00:00 14,1 11,9 - - 15 8 ESE 1024,7 50 6 0,0
14.07.2019 21:00:00 14,4 11,5 - - 16 9 ESE 1024,6 40 42 0,0
14.07.2019 20:00:00 15,0 11,6 - - 18 10 SE 1024,7 30 60 0,0
14.07.2019 19:00:00 15,2 11,9 - - 26 14 ESE 1024,8 19 60 0,0
14.07.2019 18:00:00 15,8 12,0 - - 28 15 ESE 1024,7 29 60 0,0
14.07.2019 17:00:00 16,5 12,0 - - 26 14 ESE 1025,0 10 54 0,0
14.07.2019 16:00:00 16,1 11,5 - - 24 13 ESE 1025,2 10 30 0,0
14.07.2019 15:00:00 17,6 12,6 - - 18 10 SE 1025,3 10 24 0,0
14.07.2019 14:00:00 17,4 12,4 - - 22 12 ESE 1025,5 10 30 0,0
14.07.2019 13:00:00 16,1 11,7 - - 21 11 ESE 1025,7 26 18 0,0
14.07.2019 12:00:00 16,6 12,4 - - 13 7 ESE 1025,4 10 6 0,0
14.07.2019 11:00:00 16,8 12,8 - - 13 7 SE 1025,5 35 18 0,0
14.07.2019 10:00:00 15,3 10,9 16,5 14,0 11 6 SE 1025,5 10 42 0,0
14.07.2019 09:00:00 15,3 11,1 - - 9 5 SE 1025,5 10 42 0,0
14.07.2019 08:00:00 15,1 10,8 - - 11 6 ESE 1025,4 40 60 0,0
14.07.2019 07:00:00 15,3 11,9 - - 8 4 SSE 1025,2 35 18 0,0
14.07.2019 06:00:00 14,4 13,2 - - 9 5 S 1024,9 10 6 0,0
14.07.2019 05:00:00 13,3 13,3 - - 2 1 N 1025,1 10 0 0,0
14.07.2019 04:00:00 13,5 13,4 - - 4 2 W 1024,9 40 0 0,0
14.07.2019 03:00:00 13,9 13,8 - - 4 2 W 1025,0 21 0 0,0
14.07.2019 02:00:00 13,9 13,9 - - 5 3 WSW 1025,1 30 0 0,0
14.07.2019 01:00:00 14,2 14,2 - - 8 4 W 1024,9 10 - 0,0
14.07.2019 00:00:00 14,2 14,1 - - 2 1 NW 1024,8 10 0 0,0
13.07.2019 23:00:00 14,3 14,0 - - 4 2 NE 1024,8 10 0 0,0
13.07.2019 22:00:00 14,1 13,9 - - 5 3 NE 1024,5 35 0 0,0
13.07.2019 21:00:00 14,8 13,7 - - 8 4 SE 1024,0 28 0 0,0
13.07.2019 20:00:00 14,7 14,1 - - 13 7 E 1023,7 3,6 0 1,2
13.07.2019 19:00:00 15,9 13,0 - - 22 12 E 1023,1 11 6 0,0
13.07.2019 18:00:00 16,5 13,1 - - 21 11 E 1022,6 30 36 0,0
13.07.2019 17:00:00 18,5 14,2 - - 21 11 ESE 1022,4 12 42 0,0
13.07.2019 16:00:00 18,3 14,2 - - 18 10 SSE 1022,3 9 24 0,2
13.07.2019 15:00:00 17,6 13,4 - - 18 10 ESE 1022,3 3,1 42 0,0
13.07.2019 14:00:00 17,4 13,8 - - 24 13 ESE 1022,3 17 42 0,0
13.07.2019 13:00:00 16,6 13,5 - - 21 11 ESE 1022,4 15 12 0,0
13.07.2019 12:00:00 16,9 13,9 - - 15 8 ESE 1022,4 27 6 0,0
13.07.2019 11:00:00 16,8 14,6 - - 11 6 E 1022,3 35 0 0,0
13.07.2019 10:00:00 17,4 15,2 16,5 13,9 4 2 NNW 1022,1 35 0 0,0
13.07.2019 09:00:00 16,0 15,3 - - 5 3 W 1022,0 17 0 0,0
13.07.2019 08:00:00 15,0 14,4 - - 9 5 SW 1021,6 19 0 0,0
13.07.2019 07:00:00 14,4 14,0 - - 2 1 ESE 1021,4 10 0 0,0
13.07.2019 06:00:00 14,1 13,9 - - 4 2 W 1021,0 17 0 0,0
13.07.2019 05:00:00 13,9 13,5 - - 8 4 WSW 1020,8 9 0 0,2
13.07.2019 04:00:00 14,3 13,2 - - 5 3 SSW 1020,8 22 0 0,0
13.07.2019 03:00:00 14,2 12,8 - - 5 3 S 1020,6 10 0 0,0
13.07.2019 02:00:00 14,2 12,9 - - 5 3 SSE 1020,4 10 0 0,0
13.07.2019 01:00:00 14,2 12,9 - - 5 3 SSE 1020,5 10 - 0,0
13.07.2019 00:00:00 14,3 12,9 - - 9 5 ESE 1020,1 40 0 0,0
12.07.2019 23:00:00 14,6 13,3 - - 13 7 ESE 1019,7 10 0 0,0
12.07.2019 22:00:00 15,4 13,5 - - 9 5 SSE 1019,1 10 0 0,0
12.07.2019 21:00:00 16,2 13,9 - - 11 6 SSE 1018,3 45 0 0,0
12.07.2019 20:00:00 17,0 15,3 - - 9 5 SSE 1017,7 50 0 0,0
12.07.2019 19:00:00 16,5 14,8 - - 16 9 ESE 1017,1 35 0 0,2
12.07.2019 18:00:00 17,3 14,9 - - 9 5 E 1016,7 6 6 0,4
12.07.2019 17:00:00 17,9 14,1 - - 15 8 ESE 1015,9 30 30 0,0
12.07.2019 16:00:00 18,4 15,2 - - 13 7 ESE 1015,7 10 36 0,0
12.07.2019 15:00:00 17,4 15,5 - - 11 6 ESE 1015,4 9 0 0,2
12.07.2019 14:00:00 18,5 16,0 - - 15 8 SE 1014,9 35 12 0,4
12.07.2019 13:00:00 19,5 14,6 - - 13 7 ENE 1014,4 16 6 0,0
12.07.2019 12:00:00 20,3 13,2 - - 9 5 NW 1014,0 45 54 0,0
12.07.2019 11:00:00 19,1 13,8 - - 11 6 WNW 1013,7 30 36 0,0
12.07.2019 10:00:00 18,0 14,0 16,2 13,7 11 6 NW 1013,4 35 0 0,0
12.07.2019 09:00:00 17,8 14,1 - - 11 6 WNW 1012,8 50 6 0,0
12.07.2019 08:00:00 16,0 13,8 - - 9 5 W 1012,2 40 0 0,0
12.07.2019 07:00:00 14,9 13,8 - - 11 6 W 1011,7 10 6 0,0
12.07.2019 06:00:00 14,9 13,3 - - 8 4 W 1011,1 10 0 0,0

tt = temperature
td = dewpoint
tt -20cm = temperature -20cm
tt -100cm = temperature -100cm
ff = wind speed
dd = wind direction
ppp = reduced air pressure
vv = visibility
sd = sunshine duration
rr = precipitation

Next stations